Location: Newark
(27.5900°N, 83.4900°E)
Time: 18:58:09
(UTC+00:00)

Hubble Space Telescope - Visible Passes

Search period start: 08 December 2019 00:00
Search period end: 18 December 2019 00:00
Orbit: 536 x 540 km, 28.5° (Epoch: 07 December)

Date Brightness Start Highest point End Pass type
(mag) Time Alt. Az. Time Alt. Az. Time Alt. Az.
10 Dec 3.9 23:23:34 10° SSE 23:23:51 10° SSE 23:24:09 10° SSE visible
11 Dec 3.5 23:11:05 10° S 23:13:09 14° SSE 23:15:15 10° ESE visible
12 Dec 3.1 23:01:22 16° S 23:02:29 18° SSE 23:05:17 10° ESE visible
13 Dec 1.5 00:39:18 10° WSW 00:43:21 55° SSE 00:47:24 10° E visible
13 Dec 2.9 22:52:05 22° SSE 22:52:05 22° SSE 22:55:05 10° ESE visible
14 Dec 1.1 00:28:38 10° WSW 00:32:44 66° SSE 00:36:51 10° E visible
14 Dec 3.1 22:42:39 22° ESE 22:42:39 22° ESE 22:44:44 10° E visible
15 Dec 0.9 00:18:00 10° WSW 00:22:09 77° SSE 00:26:17 10° E visible
15 Dec 3.5 22:33:03 18° ESE 22:33:03 18° ESE 22:34:18 10° E visible
16 Dec 0.7 00:08:25 17° W 00:11:33 86° S 00:15:42 10° E visible
16 Dec 3.9 22:23:22 13° E 22:23:22 13° E 22:23:49 10° E visible
16 Dec 0.7 23:58:43 26° W 00:00:59 86° N 00:05:08 10° E visible
17 Dec 0.7 23:48:55 38° W 23:50:25 81° N 23:54:33 10° E visible
